Rome, NY

6:57 AM EDT on July 21, 2017 (GMT -0400)
Griffiss

Weather History for KRME - October, 2013

Change the Weather History Date:

Wednesday, October 2, 2013

  Actual Average Record
Temperature  
Mean Temperature 62 °F -  
Max Temperature 75 °F 64 °F 81 °F (1991)
Min Temperature 50 °F 46 °F 35 °F (1992)
Degree Days  
Heating Degree Days 3    
Growing Degree Days 12 (Base 50)    
Moisture  
Dew Point 55 °F    
Average Humidity 82    
Maximum Humidity 97    
Minimum Humidity 57    
Precipitation  
Precipitation 0.00 in - - ()
Sea Level Pressure  
Sea Level Pressure 29.97 in    
Wind  
Wind Speed 4 mph (West)    
Max Wind Speed 18 mph    
Max Gust Speed 31 mph    
Visibility 10 miles    
Events      
Averages and records for this station are not official NWS values.
T = Trace of Precipitation, MM = Missing Value Source: NWS Daily Summary

Daily Weather History Graph

Daily Weather History Graph

Search for Another Location

Airport or City:

Trip Planner

Search our weather history database for the weather conditions in past years. The results will help you decide how hot, cold, wet, or windy it might be!

Date:

Astronomy

Oct. 02, 2013 Rise Set
Actual Time 7:00 AM EDT 6:40 PM EDT
Civil Twilight 6:32 AM EDT 7:08 PM EDT
Nautical Twilight 5:58 AM EDT 7:41 PM EDT
Astronomical Twilight 5:25 AM EDT 8:15 PM EDT
Moon 4:27 AM EDT (10/2) 5:17 PM EDT (10/2)
Length of Visible Light 12h 36m
Length of Day
11h 40m
Waning Crescent, 6% of the Moon is Illuminated
Oct 2
Waning Crescent
Oct 4
New
Oct 11
First Quarter
Oct 18
Full
Oct 26
Last Quarter

Hourly Weather History & Observations

Time (EDT) Temp. Dew Point Humidity Pressure Visibility Wind Dir Wind Speed Gust Speed Precip Events Conditions
12:53 AM 52.0 °F 50.0 °F 93% 29.95 in 9.0 mi Calm Calm - N/A   Clear
1:53 AM 51.1 °F 50.0 °F 96% 29.95 in 10.0 mi Calm Calm - N/A   Mostly Cloudy
2:53 AM 52.0 °F 50.0 °F 93% 29.94 in 9.0 mi ESE 3.5 mph - N/A   Clear
3:53 AM 53.1 °F 52.0 °F 96% 29.93 in 8.0 mi SSE 4.6 mph - N/A   Overcast
4:53 AM 55.0 °F 53.1 °F 93% 29.93 in 10.0 mi Calm Calm - N/A   Mostly Cloudy
5:53 AM 54.0 °F 53.1 °F 97% 29.95 in 9.0 mi SE 3.5 mph - N/A   Overcast
6:53 AM 55.0 °F 54.0 °F 96% 29.95 in 10.0 mi ESE 3.5 mph - N/A   Overcast
7:53 AM 57.0 °F 55.0 °F 93% 29.96 in 9.0 mi Calm Calm - N/A   Overcast
8:08 AM 57.0 °F 55.0 °F 93% 29.96 in 9.0 mi Calm Calm - N/A   Mostly Cloudy
8:30 AM 57.9 °F 55.0 °F 90% 29.97 in 10.0 mi Calm Calm - N/A   Mostly Cloudy
8:53 AM 59.0 °F 55.9 °F 90% 29.96 in 10.0 mi Calm Calm - N/A   Overcast
9:53 AM 62.1 °F 57.0 °F 84% 29.97 in 10.0 mi Calm Calm - N/A   Overcast
10:53 AM 63.0 °F 57.9 °F 84% 29.98 in 10.0 mi NW 3.5 mph - N/A   Overcast
11:53 AM 64.9 °F 60.1 °F 84% 29.97 in 10.0 mi Calm Calm - N/A   Overcast
12:53 PM 71.1 °F 62.1 °F 73% 29.97 in 10.0 mi West 9.2 mph - N/A   Overcast
1:26 PM 71.1 °F 61.0 °F 70% 29.96 in 10.0 mi West 11.5 mph - N/A   Mostly Cloudy
1:39 PM 73.0 °F 62.1 °F 68% 29.96 in 10.0 mi WNW 12.7 mph 20.7 mph N/A   Mostly Cloudy
1:53 PM 73.0 °F 62.1 °F 68% 29.95 in 10.0 mi WNW 12.7 mph - N/A   Mostly Cloudy
2:53 PM 72.0 °F 60.1 °F 66% 29.94 in 10.0 mi WNW 16.1 mph - N/A   Scattered Clouds
3:53 PM 72.0 °F 57.9 °F 61% 29.94 in 10.0 mi WNW 17.3 mph 31.1 mph N/A   Mostly Cloudy
4:53 PM 72.0 °F 55.9 °F 57% 29.95 in 10.0 mi West 18.4 mph 25.3 mph N/A   Clear
5:53 PM 71.1 °F 55.9 °F 59% 29.96 in 10.0 mi WNW 12.7 mph - N/A   Partly Cloudy
6:53 PM 66.9 °F 55.0 °F 66% 29.99 in 10.0 mi WNW 11.5 mph - N/A   Clear
7:53 PM 62.1 °F 54.0 °F 75% 30.01 in 10.0 mi WNW 6.9 mph - N/A   Clear
8:53 PM 59.0 °F 53.1 °F 81% 30.02 in 10.0 mi NNW 3.5 mph - N/A   Clear
9:53 PM 54.0 °F 51.1 °F 90% 30.04 in 10.0 mi Calm Calm - N/A   Clear
10:53 PM 52.0 °F 50.0 °F 93% 30.05 in 10.0 mi Calm Calm - N/A   Clear
11:53 PM 50.0 °F 48.9 °F 96% 30.06 in 9.0 mi Calm Calm - N/A   Clear